File timestamp: Sun Sep 18 03:00:00 2016, Internal temp: 17.242431640625
1474167601, -0.142591223120689, -0.0675807744264603, -0.00741584645584226, 33966, 31343, 23001, -104.327568054199
1474167602, -0.135218009352684, 0.0668062269687653, 0.0755420476198196, 32783, 33448, 24155, NaN
1474167603, -0.211713567376137, -0.0378360189497471, 0.00131671410053968, 33627, 32084, 23485, NaN
1474167604, -0.201628088951111, 0.0554666072130203, 0.0730824694037437, 32987, 33387, 23400, NaN
1474167605, -0.119384840130806, -0.0224927198141813, -0.0147641291841865, 34036, 32445, 23800, NaN
1474167606, -0.114841982722282, 0.061348095536232, 0.0409026332199574, 33614, 33508, 22690, NaN
1474167607, -0.108644746243954, -0.051484402269125, 0.0418881922960281, 32965, 31923, 23068, NaN
1474167608, -0.0569013021886349, 0.0769612416625023, 0.0335745066404343, 33681, 33675, 23781, NaN
1474167609, -0.0646088048815727, -0.0530476681888103, -0.000512426253408194, 33937, 31926, 22982, NaN
1474167610, 0.0453273728489876, 0.0760713145136833, 0.0392253436148167, 33329, 33628, 23507, NaN
1474167611, 0.123484157025814, -0.0280368030071259, 0.0478541366755962, 33415, 32345, 23327, NaN
1474167612, 0.0555139556527138, 0.080402709543705, -0.0459109023213387, 34996, 33683, 22311, NaN
1474167613.008, 0.109888263046741, -0.135398864746094, 0.172043308615685, 31238, 30542, 23512, NaN
1474167614.008, 0.125764280557632, 0.169011801481247, -0.0566380992531776, 35266, 35547, 23735, NaN
1474167615.008, 0.12745775282383, -0.0758311524987221, 0.0319767631590366, 33625, 31224, 23503, NaN
1474167616.008, 0.175685942173004, 0.051419660449028, 0.0569563657045364, 32831, 33321, 23631, NaN
1474167616.008, 0.141816079616547, 0.00419794814661145, -0.00460542785003781, 34278, 32445, 22855, NaN
1474167617.016, 0.188345149159431, -0.00866781920194626, 0.0863225385546684, 32557, 32227, 23506, NaN
1474167618.016, 0.175775334239006, 0.0442552864551544, -0.0222472697496414, 34296, 33418, 23214, NaN
1474167619.016, 0.216012418270111, 0.00847266148775816, 0.0868196710944176, 32495, 32691, 23490, NaN
1474167620.016, 0.229313030838966, 0.0111436294391751, -0.00805712305009365, 34625, 32993, 23293, NaN
1474167620.016, 0.200278639793396, 0.0560059547424316, -0.0118530066683888, 34246, 32998, 22513, NaN
1474167621.022, 0.0845815390348434, -0.0931457579135895, 0.125044479966164, 31468, 31128, 23101, NaN
1474167622.022, 0.061518382281065, 0.155426487326622, -0.0437851659953594, 34895, 34816, 23969, NaN
1474167623.022, -0.0953293070197105, -0.0797117799520493, 0.0482645370066166, 32952, 31526, 22970, NaN
1474167624.022, -0.135288164019585, 0.0829798132181168, 0.0422886833548546, 33319, 33451, 23332, NaN
1474167624.022, -0.138029381632805, -0.0250278562307358, 0.00296949758194387, 33606, 32751, 23665, NaN
1474167625.026, -0.146764248609543, 0.0630011186003685, 0.0638707801699638, 33069, 33527, 23159, NaN
1474167626.026, -0.115644559264183, 0.00898074638098478, -0.0140319392085075, 34046, 32649, 22874, NaN
1474167627.026, -0.0607637278735638, -8.50297219585627e-05, 0.0926954001188278, 32375, 32656, 23218, NaN
1474167628.026, 0.0186864137649536, 0.0839469954371452, -0.0573069415986538, 35024, 33469, 23560, NaN
1474167629.026, 0.0615354515612125, -0.0346820987761021, 0.0751256868243217, 32771, 31882, 23288, NaN
1474167630.026, -0.0631123483181, 0.0151682132855058, -0.0245847813785076, 34126, 32357, 22494, NaN
1474167631.026, -0.0330187380313873, 0.035785973072052, 0.0917935818433762, 32773, 33321, 23782, NaN
1474167632.026, -0.133603096008301, 0.0304648783057928, -0.0243569444864988, 34359, 32795, 22986, NaN
1474167633.026, -0.15398970246315, 0.00465694395825267, 0.0781292244791985, 32535, 32724, 22848, NaN
1474167634.026, -0.0675273761153221, 0.0575255453586578, 0.0185013432055712, 33409, 33191, 23512, NaN
1474167635.026, -0.0431031845510006, -0.0294160060584545, 0.00579213816672564, 33816, 31930, 23098, NaN
1474167636.026, 0.0165995694696903, 0.0459852442145348, 0.0657704025506973, 32462, 32947, 23530, NaN
1474167637.026, 0.029835881665349, 0.00753032928332686, 0.0411494001746178, 33132, 32658, 23770, NaN
1474167638.026, 0.00270490441471338, 0.0175345949828625, -0.00476510217413306, 34164, 32538, 23363, NaN
1474167639.026, -0.144509598612785, 0.0163549315184355, 0.0800634250044823, 32360, 33038, 22997, NaN
1474167640.036, -0.10990946739912, 0.00371906347572803, 0.0075576058588922, 34038, 32575, 23945, NaN
1474167641.036, -0.14864918589592, 0.0502022467553616, 0.00761154387146235, 33685, 33484, 23321, NaN
1474167642.036, -0.107481621205807, -0.0492192804813385, 0.053304772824049, 33344, 31496, 23521, NaN
1474167643.036, -0.0751480758190155, 0.0902842506766319, 0.00767411757260561, 33811, 33935, 23413, NaN
1474167643.036, -0.0360444560647011, -0.00978647451847792, 0.0249798092991114, 33660, 32489, 23033, NaN
1474167644.044, 0.0111026735976338, 0.0224505923688412, 0.0589947812259197, 32846, 32399, 23170, NaN
1474167645.044, 0.0592417642474174, -0.0238184295594692, -0.0252017602324486, 34523, 32488, 23288, NaN
1474167646.044, 0.0634901821613312, 0.0646119862794876, 0.0870060920715332, 32599, 33428, 23158, NaN
1474167647.044, 0.0825499147176743, -0.0577655732631683, -0.0522612072527409, 34555, 31994, 23679, NaN
1474167648.044, 0.0439550243318081, 0.0775370448827744, 0.08598243445158, 32748, 33559, 23205, NaN
1474167649.044, 0.0359537154436111, -0.0597730912268162, -0.0121522089466453, 33950, 32030, 23312, NaN
1474167650.044, 0.0258518494665623, 0.0920280441641808, 0.0618990771472454, 33184, 33621, 23756, NaN
1474167651.044, -0.0135903395712376, -0.0857199802994728, 0.00645781354978681, 33810, 31351, 23401, NaN
1474167652.044, -0.0406970083713531, 0.0940131694078445, 0.0281904153525829, 33325, 33896, 23247, NaN
1474167653.044, 0.00464576249942183, -0.0776762068271637, 0.0409524291753769, 33485, 31360, 23535, NaN
1474167654.044, -0.0196235924959183, 0.0649060159921646, -0.0117481425404549, 33896, 33471, 23084, NaN
1474167655.044, 0.0366596281528473, -0.0303660444915295, 0.0662475377321243, 33010, 31993, 23440, NaN
1474167656.044, 0.0545617379248142, 0.00550729967653751, 0.000876748003065586, 33779, 32439, 23316, NaN
1474167657.044, -0.00181122601497918, 0.0249358769506216, 0.0333599038422108, 33746, 33524, 22469, -124.136680603027
1474167658.044, -0.0664972960948944, -0.0111087393015623, 0.0664346069097519, 32411, 32018, 23692, NaN
1474167659.044, -0.142082929611206, -0.0403208397328854, 0.0759802386164665, 32757, 32506, 23743, NaN
1474167660.044, -0.181011706590652, 0.081552729010582, -0.0432231277227402, 34542, 33744, 23104, NaN
1474167661.044, -0.151702374219894, -0.0760697424411774, 0.11530939489603, 32217, 31514, 23106, NaN
1474167662.044, -0.0906849354505539, 0.0850978940725327, -0.053551509976387, 34779, 33464, 23246, NaN
1474167663.044, -0.0529917366802692, -0.0544155277311802, 0.100530028343201, 32187, 31510, 22762, NaN
1474167664.044, 0.0199986826628447, 0.0301022902131081, -0.0135898804292083, 34131, 32990, 22408, NaN
1474167665.044, 0.123236484825611, -0.00395985553041101, 0.065034955739975, 33036, 32393, 22904, NaN
1474167666.044, 0.194395691156387, 0.0302138179540634, -0.00962832570075989, 34151, 33119, 22895, NaN
1474167667.044, 0.23478652536869, -0.0355987995862961, 0.0692265406250954, 33016, 31740, 23154, NaN
1474167668.054, 0.303173065185547, 0.0290661156177521, -0.000846928916871548, 34061, 32958, 23504, NaN
1474167669.054, 0.246792882680893, 0.00652413023635745, 0.0493576228618622, 33160, 33054, 23059, NaN
1474167670.054, 0.281410187482834, 0.0317824520170689, 0.0159943681210279, 33900, 32207, 23223, NaN
1474167671.054, 0.247559443116188, -0.0574901439249516, 0.038922406733036, 33109, 31693, 23182, NaN
1474167671.054, 0.230920046567917, 0.0655185729265213, 0.0171725004911423, 33922, 33339, 23089, NaN
1474167672.062, 0.177345976233482, -0.0125316921621561, 0.0201546251773834, 33102, 32667, 23175, NaN
1474167673.062, 0.113661453127861, 0.0616856217384338, 0.127220034599304, 32214, 33602, 23942, NaN
1474167674.062, -0.0246292147785425, 0.0119578903540969, -0.102955378592014, 35063, 32895, 23675, NaN
1474167675.062, -0.0727860108017921, 0.0387741774320602, 0.217182353138924, 31051, 33276, 24291, NaN
1474167675.062, -0.117311678826809, 0.0439473763108253, -0.133685782551765, 36402, 32871, 22570, NaN
1474167676.068, -0.255404859781265, -0.0264631826430559, 0.15152508020401, 31289, 31944, 22693, NaN
1474167677.068, -0.229760646820068, 0.0399936772882938, -0.0781503096222878, 34820, 33045, 23387, NaN
1474167678.068, -0.208391755819321, 0.00516140228137374, 0.122763901948929, 32328, 32494, 23445, NaN
1474167679.068, -0.234322816133499, -0.00531715666875243, -0.0594158992171288, 34387, 32525, 22989, NaN
1474167679.068, -0.175058335065842, 0.0358556509017944, 0.128279522061348, 32498, 32946, 23304, NaN
1474167680.072, -0.129220589995384, -0.0221908744424582, -0.0783855020999908, 34520, 32422, 23111, NaN
1474167681.072, -0.0381845273077488, 0.0887284576892853, 0.162464842200279, 31825, 34255, 23090, NaN
1474167682.072, 0.0667697191238403, -0.0529906861484051, -0.106630392372608, 35495, 31521, 22717, NaN
1474167683.072, 0.214796975255013, 0.0575899556279182, 0.1893320530653, 31312, 33304, 23626, NaN
1474167684.072, 0.243254274129868, 0.0097902724519372, -0.0988131314516068, 35536, 32750, 22893, NaN
1474167685.072, 0.226179972290993, 0.0246345717459917, 0.146549016237259, 31931, 32864, 22951, NaN
1474167686.072, 0.185351446270943, -0.0192654002457857, -0.0807221382856369, 34957, 32511, 23112, NaN
1474167687.072, 0.182229816913605, 0.0456646606326103, 0.122128710150719, 32444, 33077, 23434, NaN
1474167688.072, 0.196134567260742, -0.0239360779523849, -0.0321214273571968, 33842, 32260, 23457, NaN
1474167689.072, 0.207347124814987, 0.0398362576961517, 0.12451758235693, 32417, 32983, 23420, NaN
1474167690.072, 0.174714744091034, -0.00333265285007656, -0.0373312346637249, 34185, 32122, 22886, NaN
1474167691.052, 0.0856654718518257, 0.00147317687515169, 0.11077243834734, 32305, 32815, 23249, NaN
1474167692.052, -0.00294656259939075, 0.0370667241513729, -0.032126072794199, 34168, 32941, 23510, NaN
1474167693.052, -0.114392273128033, -0.0282184407114983, 0.0983565002679825, 32492, 32423, 23315, NaN
1474167693.052, -0.216835379600525, 0.0625488609075546, -0.00361837912350893, 33530, 33518, 23014, NaN
1474167694.06, -0.21845979988575, -0.0409776195883751, 0.101800359785557, 32707, 31762, 23512, NaN
1474167695.06, -0.30073744058609, 0.0333537943661213, -0.0678644403815269, 34824, 33273, 22423, NaN
1474167696.06, -0.316761076450348, 0.0183607768267393, 0.166503503918648, 31642, 32780, 23545, NaN
1474167697.06, -0.388615369796753, -0.0105959819629788, -0.0910831019282341, 36039, 32705, 22939, NaN
1474167697.06, -0.445522427558899, 0.0306599419564009, 0.0953016132116318, 32559, 33028, 23054, NaN
1474167698.068, -0.457525730133057, -0.0149531802162528, 0.025766285136342, 33005, 32033, 23473, NaN
1474167699.068, -0.371216595172882, -0.00828849337995052, 0.112797126173973, 32396, 32671, 23937, NaN
1474167700.068, -0.383200198411942, 0.0427673943340778, -0.0464927740395069, 34544, 33414, 22875, NaN
1474167701.068, -0.21722024679184, -0.00781690236181021, 0.0880938395857811, 32952, 32592, 22933, NaN
1474167702.068, -0.159697845578194, 0.0447202883660793, -0.0248579699546099, 33777, 33332, 22853, NaN
1474167703.068, -0.0245431214570999, 0.00915209762752056, 0.11973898857832, 32487, 32487, 24167, NaN
1474167704.068, -0.0498006753623486, -0.0154740586876869, -0.0362867750227451, 34511, 32161, 23238, NaN
1474167705.068, 0.0222720764577389, 0.0290807634592056, 0.0664402991533279, 33036, 32994, 23524, NaN
1474167706.068, 0.0368349589407444, 0.0152146341279149, 0.00191968691069633, 34608, 32634, 22291, NaN
1474167707.068, 6.65665211272426e-05, 0.0659646168351173, -0.00385138066485524, 33689, 33904, 22644, NaN
1474167708.068, 0.110150292515755, -0.0140930451452732, 0.128140985965729, 32008, 32192, 23873, NaN
1474167709.068, 0.100935839116573, 0.00053488474804908, -0.056421659886837, 34938, 32670, 22642, NaN
1474167710.068, 0.165307700634003, 0.0134846661239862, 0.098682314157486, 32478, 32771, 22890, NaN
1474167711.068, 0.25543874502182, 0.000145971003803425, -0.0084991380572319, 33741, 32576, 23894, NaN
1474167712.068, 0.322014033794403, 0.0303549654781818, 0.043832041323185, 33687, 33027, 23714, -105.919242858887
1474167713.068, 0.273576825857162, 0.00171471992507577, 0.0376104488968849, 32699, 32546, 23042, NaN
1474167714.068, 0.353472739458084, 0.00666897045448422, 0.0980736017227173, 33221, 32619, 23906, NaN
1474167715.068, 0.316155880689621, 0.0254980698227882, -0.113309748470783, 35605, 33040, 22734, NaN
1474167715.428, 0.369966059923172, 0.0115895895287395, -0.144751533865929, 36228, 32917, 23650, NaN
1474167716.428, 0.266859352588654, 0.0441181138157845, 0.106988072395325, 32140, 33099, 22605, NaN
1474167717.428, 0.263192802667618, -0.058488767594099, -0.00464508263394237, 33250, 31680, 23578, NaN
1474167718.428, 0.239123106002808, 0.0840962156653404, 0.0860169008374214, 33156, 33922, 24054, NaN
1474167719.428, 0.167831853032112, -0.0301070418208838, -0.0630809292197227, 34839, 32033, 22910, NaN
1474167720.428, 0.131479144096375, -0.0151430694386363, 0.092511460185051, 32488, 31886, 23017, NaN
1474167721.436, 0.149359554052353, 0.0101823834702373, -0.00990996416658163, 33934, 32995, 23567, NaN
1474167722.436, 0.0862103849649429, 0.0355181470513344, 0.0394964590668678, 33563, 32973, 23001, NaN
1474167723.436, 0.0827161520719528, -0.0273049380630255, 0.0478529073297977, 32945, 32032, 23365, NaN
1474167724.436, 0.101002238690853, -0.0105516407638788, 0.0392610505223274, 33526, 32172, 24130, NaN
1474167724.436, -0.0174913760274649, 0.0412550829350948, 0.00319962250068784, 33629, 33642, 23045, NaN
1474167725.444, -0.030842887237668, -0.00612590555101633, 0.0539084859192371, 33297, 32458, 23016, NaN
1474167726.444, -0.0168328750878572, 0.0211935490369797, 0.0378555469214916, 32948, 32710, 23644, NaN
1474167727.444, -0.0244747046381235, 0.00134241243358701, 0.0641803741455078, 33553, 32803, 23884, NaN
1474167728.444, -0.169078931212425, 0.0624397099018097, -0.0248956177383661, 34036, 33476, 23141, NaN
1474167728.444, -0.150802090764046, -0.0623411424458027, 0.14876115322113, 31843, 31611, 24131, NaN
1474167729.45, -0.242424711585045, 0.0408551730215549, -0.0721138641238213, 34716, 33341, 22935, NaN
1474167730.45, -0.186210632324219, 0.0354985520243645, 0.102398432791233, 32464, 32911, 23346, NaN
1474167731.45, -0.160259827971458, -0.0756741240620613, -0.0118801966309547, 33800, 31470, 23095, NaN
1474167732.45, -0.142967015504837, 0.13363154232502, 0.0527765788137913, 33180, 34966, 23000, NaN
1474167732.45, -0.134719118475914, -0.127005040645599, 0.0221160408109426, 33256, 30656, 23871, NaN
1474167733.454, -0.166375368833542, 0.103801257908344, 0.0735740661621094, 33395, 33776, 23730, NaN
1474167734.454, -0.23114150762558, -0.0314980708062649, -0.0337079837918282, 34311, 32524, 22470, NaN
1474167735.454, -0.188874885439873, 0.0672246366739273, 0.15940697491169, 31611, 32730, 23990, NaN
1474167736.454, -0.229396730661392, -0.098947674036026, -0.112801969051361, 36138, 31239, 22987, NaN
1474167737.454, -0.326503604650497, 0.164280071854591, 0.169872626662254, 30647, 35298, 23052, NaN
1474167738.454, -0.208828866481781, -0.131698131561279, 0.0268366429954767, 33457, 30850, 24476, NaN
1474167739.454, -0.245355620980263, 0.11068457365036, -0.0401866622269154, 34763, 34464, 22890, NaN
1474167740.454, -0.123011894524097, -0.0979089885950089, 0.0988974347710609, 32568, 31039, 23032, NaN
1474167741.454, 0.00223066564649343, 0.0862654522061348, -0.00412353361025453, 33782, 33977, 23324, NaN
1474167742.454, 0.147414296865463, -0.0327160283923149, 0.0629073455929756, 33393, 32549, 23640, NaN
1474167743.454, 0.241191327571869, 0.042036022990942, -0.00432536657899618, 33495, 32802, 23848, NaN
1474167744.454, 0.29880291223526, -0.121713303029537, 0.112236060202122, 32687, 31421, 23902, NaN
1474167745.454, 0.196193590760231, 0.169340968132019, -0.0687955915927887, 35015, 35055, 22499, NaN
1474167746.454, 0.164304986596107, -0.179434016346931, 0.216981515288353, 30592, 30123, 23750, NaN
1474167746.454, 0.134135454893112, 0.137508720159531, -0.125843375921249, 35991, 34380, 23823, NaN
1474167747.462, 0.0528441146016121, -0.061676561832428, 0.0889222919940948, 33002, 31844, 22260, NaN
1474167748.462, 0.0468870848417282, 0.00462980754673481, 0.0487008057534695, 32358, 32232, 23892, NaN
1474167749.462, 0.0268363058567047, 0.0215870328247547, 0.0925537943840027, 33423, 33215, 24251, NaN
1474167750.462, -0.10197476297617, 0.0255426038056612, -0.0468719676136971, 34520, 33050, 22729, NaN
1474167750.462, -0.0442094430327415, 0.0141832428053021, 0.12110847234726, 31993, 32546, 23389, NaN
1474167751.47, 0.0634613260626793, -0.0366935320198536, 9.13841649889946e-05, 33952, 32080, 24023, NaN
1474167752.47, 0.0944622009992599, 0.0394603088498116, 0.0493956245481968, 33365, 33374, 23304, NaN
1474167753.47, 0.152849987149239, -0.00293264514766634, 0.0733025744557381, 33673, 32343, 22691, NaN
1474167754.47, 0.196362853050232, -0.00609203893691301, -0.0562229156494141, 35038, 32667, 22673, NaN
1474167754.47, 0.268926113843918, 0.0297281201928854, 0.163071349263191, 31640, 33075, 23307, NaN
1474167755.476, 0.30908265709877, 0.016093835234642, -0.0773616060614586, 35238, 33158, 23116, NaN
1474167756.476, 0.33912393450737, -0.0171777456998825, 0.133886769413948, 32370, 31825, 23366, NaN
1474167757.476, 0.319908529520035, 0.00305982958525419, -0.0348086543381214, 33935, 32550, 23218, NaN
1474167758.476, 0.254123747348785, -0.00201605027541518, 0.136759400367737, 32144, 32881, 23324, NaN
1474167759.476, 0.160792827606201, 0.0587978214025497, -0.0493439473211765, 34353, 33590, 23183, NaN
1474167760.476, 0.0832280665636063, -0.0666900351643562, 0.137632071971893, 32243, 31795, 23276, NaN
1474167761.476, -0.0330916419625282, 0.0891373157501221, -0.0721447691321373, 34723, 33826, 23135, NaN
1474167762.476, -0.118923023343086, -0.0622431971132755, 0.188661679625511, 31662, 31782, 23901, NaN
1474167763.476, -0.266092717647552, 0.0416474081575871, -0.115535870194435, 36639, 33203, 22874, NaN
1474167764.476, -0.46221387386322, 0.00157019926700741, 0.157164677977562, 31210, 32802, 22963, NaN
1474167765.476, -0.491488963365555, 0.0206638853996992, 0.0113861849531531, 33926, 32960, 23708, NaN
1474167766.476, -0.503509044647217, -0.00263190572150052, 0.0328459106385708, 33651, 32725, 23552, -92.8941345214844
1474167767.476, -0.493690252304077, 0.00638265628367662, 0.0367225110530853, 33449, 32589, 22607, NaN
1474167768.476, -0.397672802209854, -0.00939170736819506, 0.0714751854538918, 33160, 32646, 23351, NaN
1474167769.476, -0.291229009628296, 0.0723447576165199, -0.00637241639196873, 34417, 33421, 23770, NaN
1474167770.476, -0.232793867588043, -0.0942013338208199, 0.073597177863121, 32963, 31030, 23311, NaN
1474167771.476, -0.160311296582222, 0.086228609085083, -0.00491431076079607, 34524, 34158, 22931, NaN
1474167772.476, -0.0752138271927834, -0.0892412737011909, 0.0965286269783974, 32399, 30961, 23437, NaN
1474167773.476, 0.00445285951718688, 0.0402356758713722, 0.0261416994035244, 34023, 33765, 23670, NaN
1474167774.484, 0.0594308823347092, 0.029456052929163, 0.0360974669456482, 33427, 33173, 23799, NaN
1474167775.484, 0.109254144132137, -0.0331506282091141, 0.110745288431644, 32347, 32260, 23680, NaN
1474167776.484, 0.0864358991384506, 0.0459407083690166, -0.00927477143704891, 34705, 33431, 22815, NaN
1474167777.484, 0.151825323700905, 0.000535538303665817, 0.0576633624732494, 33109, 32937, 23137, NaN
1474167777.484, 0.223990827798843, 0.0162884593009949, 0.051231786608696, 33928, 33168, 22923, NaN
1474167778.492, 0.181228548288345, -0.000589275849051774, -0.0243093315511942, 34634, 32581, 22349, NaN
1474167779.492, 0.168000221252441, -0.0156850516796112, 0.164950057864189, 31878, 32582, 23685, NaN
1474167780.492, 0.0586689226329327, 0.0398713648319244, -0.0967111513018608, 35391, 33269, 23266, NaN
1474167781.492, 0.0452387519180775, -0.00702121946960688, 0.188589215278625, 30895, 32865, 23805, NaN
1474167781.492, 0.04039042070508, 0.0284148976206779, -0.0135236717760563, 34271, 32769, 23624, NaN
1474167782.498, 0.0713967233896255, -0.0612225495278835, 0.0500174053013325, 33168, 31764, 23854, NaN
1474167783.498, 0.11525085568428, 0.0487026087939739, 0.0788482129573822, 33050, 33569, 23475, NaN
1474167784.498, 0.13529834151268, 0.00144968647509813, 0.00726263085380197, 33821, 32758, 22686, NaN
1474167785.498, 0.157240658998489, 0.0179662238806486, 0.15333203971386, 31991, 32835, 24030, NaN
1474167786.498, 0.0942150354385376, -0.0147545849904418, -0.0974488705396652, 35955, 32133, 23207, NaN
1474167787.498, -0.0147099317982793, -0.0212081652134657, 0.162308186292648, 31371, 32104, 23168, NaN
1474167788.498, -0.0314538292586803, 0.0580287985503674, -0.0542904995381832, 35585, 33687, 23260, NaN
1474167789.498, -0.0669804140925407, -0.0111756306141615, 0.112603954970837, 32062, 32172, 23397, NaN
1474167790.498, 0.0282333139330149, -0.00108668557368219, 0.0334793440997601, 33839, 32569, 23987, NaN
1474167791.498, 0.00497854081913829, 0.0350927971303463, 0.0352732762694359, 33869, 33421, 22988, NaN
1474167792.498, 0.0962125808000565, 0.0167673621326685, -0.0188757609575987, 34945, 32783, 22987, NaN
1474167793.498, 0.158909574151039, -0.0548469871282578, 0.16891510784626, 31065, 31831, 23778, NaN
1474167794.498, 0.194974735379219, 0.0934848338365555, 0.0997591614723206, 32999, 33779, 24807, NaN
1474167795.498, 0.0298456493765116, -0.0592738389968872, -0.0667968392372131, 35105, 31307, 23240, NaN
1474167796.498, 0.0168047156184912, 0.0526518374681473, 0.153626278042793, 31568, 33604, 23419, NaN
1474167797.498, 0.0772173702716827, 0.0197746101766825, -0.0361245721578598, 34314, 33040, 23697, NaN
1474167798.498, 0.117783717811108, 0.0401763990521431, 0.129162445664406, 31858, 33330, 24023, NaN
1474167799.498, 0.168576583266258, -0.00801578257232904, 0.0619316250085831, 32961, 32529, 24570, NaN
1474167800.506, 0.100493706762791, 0.0252870302647352, -0.000703794881701469, 34583, 33122, 23481, NaN
1474167800.506, -0.0347621701657772, -0.0486050099134445, 0.118383936583996, 31461, 32117, 23223, NaN
1474167801.514, 0.0308090448379517, 0.0732149183750153, 0.0923332050442696, 34051, 33371, 24192, NaN
1474167802.514, -0.174543008208275, -0.0781981199979782, -0.0399398095905781, 33897, 31552, 22502, NaN
1474167803.514, -0.112516529858112, 0.145188704133034, 0.344474941492081, 29214, 34174, 24470, NaN
1474167804.514, -0.243284553289413, -0.015127562917769, -0.266486912965775, 38074, 32336, 22613, NaN
1474167804.514, -0.0643228441476822, 0.0201028659939766, 0.347707122564316, 29933, 32572, 24297, NaN
1474167805.522, -0.0593159310519695, -0.00910050794482231, -0.193040460348129, 36083, 32456, 23069, NaN
1474167806.522, 0.0680629685521126, 0.013693087734282, 0.278171747922897, 30836, 32687, 23049, NaN
1474167807.522, 0.068483978509903, -0.00404039351269603, -0.183675438165665, 36435, 32500, 22259, NaN
1474167808.522, 0.120169155299664, 0.00609561381861567, 0.391667425632477, 29224, 32716, 24894, NaN
1474167808.522, -0.0111941006034613, 0.0187309961766005, -0.233440160751343, 37523, 32893, 23055, NaN
1474167809.528, 0.0170649792999029, -0.0784631296992302, 0.237811669707298, 30366, 31447, 23424, NaN
1474167810.528, 0.0665575042366982, 0.0346230305731297, -0.060761209577322, 35533, 33869, 22711, NaN
1474167811.528, -0.00828623957931995, -0.000176033558091149, 0.0910305455327034, 32622, 32815, 22657, NaN
1474167812.528, 0.0740766823291779, -0.0353885442018509, 0.0725379809737206, 32656, 31729, 23633, NaN
1474167812.528, 0.106124855577946, 0.00848463736474514, 0.047741461545229, 33532, 32834, 23560, NaN
1474167813.532, 0.149238213896751, -0.00261652725748718, 0.0127365300431848, 33690, 32715, 23907, NaN
1474167814.532, 0.127034112811089, 0.00850977748632431, 0.0867675989866257, 32977, 32950, 23413, NaN